User: anonymous   Login
Location: Tyler Bend Campground
(35.9875°N, 92.7606°W)
Time: 22:42:00
(UTC-05:00)
Language:

Iridium 39 - Orbit

View from above orbital plane
View from above orbital plane
View from above satellite
View from above satellite

Ground track
Ground track

The orbit data is extracted from the following two-line orbital elements,

1 25042U 97069D   17176.59629210 +.00000115 +00000-0 +26444-4 0  9991
2 25042 086.3913 015.6260 0016874 287.1503 072.7851 14.46161909027670
Epoch (UTC): 25 June 2017 14:18:39
Eccentricity: 0.0016874
inclination: 86.3913°
perigee height: 726 km
apogee height: 750 km
right ascension of ascending node: 15.6260°
argument of perigee: 287.1503°
revolutions per day: 14.46161909
mean anomaly at epoch: 72.7851°
orbit number at epoch: 2767

The dashed part of the orbit path shows where the satellite is in the earth's shadow,  

DLR